Location: Lancaster
(54.0470°N, 2.8020°W)
Time: 04:41:49
(UTC+01:00)

COSMOS 2428 - Visible Passes

Search period start: 21 October 2014 00:00
Search period end: 30 October 2014 23:00
Orbit: 842 x 859 km, 71.0° (Epoch: 20 October)

Date Brightness Start Highest point End Pass type
(mag) Time Alt. Az. Time Alt. Az. Time Alt. Az.
21 Oct 5.4 00:00:00 11° NNW 00:01:45 14° NNW 00:01:45 14° NNW visible
21 Oct 5.0 03:39:46 14° ESE 03:39:46 14° ESE 03:40:36 10° ESE visible
21 Oct 3.9 05:21:56 25° SSW 05:21:56 25° SSW 05:24:33 10° S visible
21 Oct 3.7 18:30:19 10° SSE 18:34:57 26° ESE 18:39:38 10° NE visible
21 Oct 2.9 20:13:02 10° SW 20:18:44 72° NW 20:24:30 10° NNE visible
21 Oct 4.7 21:59:25 10° W 22:04:01 24° NNW 22:07:41 14° NNE visible
21 Oct 5.4 23:47:19 10° NW 23:49:41 14° NNW 23:49:41 14° NNW visible
22 Oct 2.9 20:00:46 10° SW 20:06:28 72° NW 20:12:14 10° NNE visible
22 Oct 4.7 21:47:08 10° W 21:51:44 24° NNW 21:55:35 13° NNE visible
22 Oct 5.3 23:35:03 10° NW 23:37:35 15° N 23:37:35 15° N visible
23 Oct 2.9 19:48:29 10° SW 19:54:12 72° NW 19:59:58 10° NNE visible
23 Oct 4.7 21:34:52 10° W 21:39:28 24° NNW 21:43:29 12° NNE visible
23 Oct 5.3 23:22:47 10° NW 23:25:29 15° N 23:25:29 15° N visible
24 Oct 3.0 19:36:13 10° SW 19:41:55 72° NW 19:47:41 10° NNE visible
24 Oct 4.7 21:22:36 10° W 21:27:12 24° NNW 21:31:23 12° NNE visible
24 Oct 5.3 23:10:30 10° NW 23:13:23 15° N 23:13:23 15° N visible
25 Oct 3.0 19:23:56 10° SW 19:29:39 72° NW 19:35:25 10° NNE visible
25 Oct 4.7 21:10:19 10° W 21:14:55 24° NNW 21:19:16 11° NNE visible
25 Oct 5.2 22:58:14 10° NW 23:01:16 15° N 23:01:16 15° N visible
26 Oct 3.0 18:11:40 10° SW 18:17:23 73° NW 18:23:09 10° NNE visible
26 Oct 4.7 19:58:02 10° W 20:02:39 24° NNW 20:07:09 10° NNE visible
26 Oct 5.2 21:45:57 10° NW 21:49:06 15° N 21:49:09 15° N visible
27 Oct 3.0 17:59:23 10° SW 18:05:06 73° NW 18:10:52 10° NNE visible
27 Oct 4.7 19:45:46 10° W 19:50:22 24° NNW 19:55:00 10° NNE visible
27 Oct 5.2 21:33:40 10° NW 21:36:49 15° N 21:37:02 15° N visible
28 Oct 3.0 17:47:07 10° SW 17:52:50 73° NW 17:58:36 10° NNE visible
28 Oct 4.7 19:33:29 10° W 19:38:06 24° NNW 19:42:44 10° NNE visible
28 Oct 5.1 21:21:24 10° NW 21:24:33 15° N 21:24:55 15° N visible
29 Oct 3.0 17:34:50 10° SW 17:40:33 73° NW 17:46:19 10° NNE visible
29 Oct 4.7 19:21:12 10° W 19:25:49 24° NNW 19:30:27 10° NNE visible
29 Oct 5.1 21:09:07 10° NW 21:12:16 15° N 21:12:48 15° N visible
30 Oct 3.0 17:22:33 10° SW 17:28:16 73° NW 17:34:03 10° NNE visible
30 Oct 4.7 19:08:56 10° W 19:13:32 24° NNW 19:18:10 10° NNE visible
30 Oct 5.1 20:56:50 10° NW 20:59:59 15° N 21:00:41 14° N visible
30 Oct 5.6 22:42:31 10° NNW 22:42:40 11° NNW 22:42:40 11° NNW visible
